This is the latest recevied weather packets stored in our database for station/object KB3AWQ. If no packets are shown the sender has not sent any weather packets the latest 10 day(s).
| Time | Temp. | Humidity | Pressure | Rain* | Wind** | Luminosity | Snow |
|---|---|---|---|---|---|---|---|
| 1777154967 | 7.78° C | 98% | 1013.2 hPa | 0.51 mm | - | 26 W/m² | - |
| 1777154667 | 7.78° C | 97% | 1013.2 hPa | 0.51 mm | - | 24 W/m² | - |
| 1777154366 | 8.33° C | 98% | 1013 hPa | 0.51 mm | - | 24 W/m² | - |
| 1777154066 | 8.33° C | 99% | 1012.9 hPa | 0.25 mm | - | 25 W/m² | - |
| 1777153766 | 8.33° C | 99% | 1012.9 hPa | 0.25 mm | - | 29 W/m² | - |
| 1777153466 | 8.33° C | 98% | 1012.8 hPa | 0.25 mm | - | 30 W/m² | - |
| 1777153166 | 8.33° C | 98% | 1012.8 hPa | 0.25 mm | - | 25 W/m² | - |
| 1777152866 | 8.33° C | 98% | 1012.8 hPa | 0.25 mm | - | 30 W/m² | - |
| 1777152566 | 8.33° C | 97% | 1012.8 hPa | 0.25 mm | - | 38 W/m² | - |
| 1777152267 | 8.33° C | 97% | 1012.8 hPa | 0.25 mm | - | 34 W/m² | - |
| 1777151966 | 8.33° C | 98% | 1012.7 hPa | 0.25 mm | - | 38 W/m² | - |
| 1777151667 | 8.33° C | 96% | 1012.6 hPa | 0.25 mm | - | 37 W/m² | - |
| 1777151369 | 8.33° C | 99% | 1012.6 hPa | 0.25 mm | - | 38 W/m² | - |
| 1777151066 | 8.33° C | 98% | 1012.6 hPa | 0.25 mm | - | 39 W/m² | - |
| 1777150766 | 8.33° C | 98% | 1012.5 hPa | 0.51 mm | - | 43 W/m² | - |
| 1777150466 | 8.33° C | 98% | 1012.5 hPa | 0.51 mm | - | 56 W/m² | - |
| 1777150166 | 8.89° C | 99% | 1012.5 hPa | 0.51 mm | - | 80 W/m² | - |
| 1777149867 | 8.89° C | 99% | 1012.4 hPa | 1.52 mm | - | 110 W/m² | - |
| 1777149566 | 8.89° C | 99% | 1012.5 hPa | 1.52 mm | - | 72 W/m² | - |
| 1777149267 | 8.89° C | 98% | 1012.5 hPa | 1.78 mm | - | 75 W/m² | - |
| 1777148966 | 8.89° C | 98% | 1012.5 hPa | 2.29 mm | - | 78 W/m² | - |
| 1777148667 | 8.89° C | 97% | 1012.5 hPa | 2.54 mm | - | 81 W/m² | - |
| 1777148367 | 8.89° C | 98% | 1012.6 hPa | 2.54 mm | - | 63 W/m² | - |
| 1777148066 | 8.89° C | 98% | 1012.6 hPa | 2.54 mm | - | 91 W/m² | - |
| 1777147766 | 8.89° C | 98% | 1012.7 hPa | 2.54 mm | - | 80 W/m² | - |
* Rain latest hour (hover to see other rain measurements)
** Current wind speed in m/s (hover to see current wind gust speed)